Weather in Addu City

Maldives     0°36′17″N   73°05′19″E
temp.,
°C
wind,
m/s
gust,
m/s
humid.,
%
clouds,
%
prec.,
mm/h
press.,
hPa
HPBL,
m
28 february, sun
sun2823:00+28n336469 0.0 1010956
02:00+28n336199 0.0 1009984
05:00+28nnw3361100 0.0 1008983
08:00+28n2260100 0.0 1011960
11:00+28nne3361100 0.0 1010976
14:00+28nne3463100 0.0 1007978
17:00+28n336280 0.0 1007991
20:00+28n33647 0.0 10101135
1 march, mon
mon123:00+28nnw226217 0.0 10121198
02:00+28nnw335973 0.0 10101354
05:00+28nnw336159 0.1 10101273
08:00+28nnw446489 0.0 10121056
11:00+28n346489 0.0 1012975
14:00+28n556787 0.0 1009976
17:00+28n456879 0.0 10091005
20:00+28n446699 0.0 10111163
2 march, tue
tue223:00+28nne446791 0.0 10131148
02:00+28nne446759 0.0 10101161
05:00+28nne446764 0.0 10101098
08:00+28nne567263 0.0 1011835
11:00+28nne566959 0.0 1012832
14:00+28nne6773100 0.0 1008820
17:00+28nne787484 0.0 1008821
20:00+28nne787766 0.0 1010884
3 march, wed
wed323:00+28nne777648 0.0 1011995
02:00+28nne667383 0.0 10081062
05:00+28ne567091 0.0 10081010
08:00+28nne667196 0.0 10101016
11:00+28nne787194 0.0 10101074
14:00+28nne787369 0.0 10071172
17:00+28nne787280 0.1 10081185
20:00+28n677179 0.1 10101338
4 march, thu
thu423:00+28n567089 0.1 10111133
02:00+28n446867 0.1 10091077
05:00+28n556683 0.1 10091184
08:00+28nne6664100 0.0 10111142
11:00+28nne896850 0.0 1011937
14:00+28nne786917 0.0 10081038
17:00+28n677034 0.0 10081063
20:00+28nne667012 0.0 10111131